Burbank, CA

11:18 PM PDT on June 28, 2017 (GMT -0700)
Burbank-Glendale-Pasadena

Weather History for KBUR - November, 2013

Change the Weather History Date:

Thursday, November 21, 2013

  Actual Average Record
Temperature  
Mean Temperature 60 °F 58 °F  
Max Temperature 65 °F 71 °F 88 °F (2002)
Min Temperature 54 °F 44 °F 31 °F (1979)
Degree Days  
Heating Degree Days 5 7  
Month to date heating degree days 28 102  
Since 1 July heating degree days 55 151  
Cooling Degree Days 0 0  
Month to date cooling degree days 52 12  
Year to date cooling degree days 2011 1243  
Growing Degree Days 10 (Base 50)    
Moisture  
Dew Point 53 °F    
Average Humidity 75    
Maximum Humidity 87    
Minimum Humidity 63    
Precipitation  
Precipitation 0.03 in 0.04 in 2.60 in (1967)
Month to date precipitation 0.03 0.67  
Year to date precipitation 2.74 14.51  
Since 1 July precipitation 0.14  
Sea Level Pressure  
Sea Level Pressure 29.83 in    
Wind  
Wind Speed 5 mph (SSE)    
Max Wind Speed 14 mph    
Max Gust Speed 20 mph    
Visibility 9 miles    
Events Rain    
T = Trace of Precipitation, MM = Missing Value Source: NWS Daily Summary

Daily Weather History Graph

Daily Weather History Graph

Search for Another Location

Airport or City:

Trip Planner

Search our weather history database for the weather conditions in past years. The results will help you decide how hot, cold, wet, or windy it might be!

Date:

Astronomy

Nov. 21, 2013 Rise Set
Actual Time 6:32 AM PST 4:46 PM PST
Civil Twilight 6:05 AM PST 5:13 PM PST
Nautical Twilight 5:34 AM PST 5:43 PM PST
Astronomical Twilight 5:04 AM PST 6:13 PM PST
Moon 8:25 PM PST (11/21) 9:42 AM PST (11/21)
Length of Visible Light 11h 07m
Length of Day
10h 13m
Waning Gibbous, 84% of the Moon is Illuminated
Nov 21
Waning Gibbous
Nov 25
Last Quarter
Dec 2
New
Dec 9
First Quarter
Dec 17
Full

Hourly Weather History & Observations

Time (PST) Temp. Dew Point Humidity Pressure Visibility Wind Dir Wind Speed Gust Speed Precip Events Conditions
12:11 AM 59.0 °F 53.6 °F 82% 29.87 in 9.0 mi SE 8.1 mph - N/A   Overcast
12:53 AM 59.0 °F 55.0 °F 87% 29.83 in 4.0 mi SSE 6.9 mph - 0.01 in Rain Light Rain
1:53 AM 59.0 °F 55.0 °F 87% 29.81 in 4.0 mi SE 8.1 mph - 0.00 in Rain Light Rain
2:53 AM 59.0 °F 55.0 °F 87% 29.81 in 9.0 mi SE 10.4 mph - 0.00 in   Overcast
3:53 AM 59.0 °F 55.0 °F 87% 29.79 in 5.0 mi SE 10.4 mph - 0.00 in Rain Light Rain
3:55 AM 59.0 °F 55.4 °F 88% 29.82 in 7.0 mi SE 10.4 mph - 0.00 in Rain Light Rain
4:53 AM 57.9 °F 55.0 °F 90% 29.80 in 4.0 mi SE 11.5 mph - 0.00 in   Overcast
5:53 AM 59.0 °F 55.0 °F 87% 29.80 in 10.0 mi SE 9.2 mph - N/A   Overcast
6:06 AM 59.0 °F 55.4 °F 88% 29.83 in 10.0 mi SE 9.2 mph - N/A   Overcast
6:26 AM 57.2 °F 55.4 °F 94% 29.83 in 5.0 mi Variable 4.6 mph - N/A   Overcast
6:36 AM 57.2 °F 55.4 °F 94% 29.84 in 5.0 mi SSW 6.9 mph - 0.00 in Rain Light Rain
6:53 AM 57.9 °F 55.0 °F 90% 29.82 in 3.0 mi South 6.9 mph - 0.02 in Rain Light Rain
7:06 AM 59.0 °F 55.4 °F 88% 29.84 in 4.0 mi SE 6.9 mph - 0.00 in Rain Light Rain
7:53 AM 59.0 °F 55.0 °F 87% 29.83 in 10.0 mi SSE 4.6 mph - 0.00 in   Overcast
8:53 AM 59.0 °F 55.9 °F 90% 29.83 in 5.0 mi SSE 4.6 mph - 0.00 in   Overcast
9:02 AM 59.0 °F 55.4 °F 88% 29.86 in 10.0 mi South 4.6 mph - N/A   Overcast
9:53 AM 60.1 °F 55.9 °F 86% 29.84 in 10.0 mi Calm Calm - 0.00 in   Overcast
10:53 AM 61.0 °F 54.0 °F 78% 29.84 in 10.0 mi North 4.6 mph - N/A   Overcast
11:00 AM 60.8 °F 53.6 °F 77% 29.86 in 10.0 mi NNE 4.6 mph - N/A   Overcast
11:53 AM 62.1 °F 54.0 °F 75% 29.82 in 10.0 mi Calm Calm - N/A   Overcast
12:53 PM 63.0 °F 54.0 °F 72% 29.81 in 10.0 mi South 9.2 mph - N/A   Overcast
1:00 PM 62.6 °F 53.6 °F 72% 29.83 in 10.0 mi South 6.9 mph - N/A   Mostly Cloudy
1:09 PM 62.6 °F 53.6 °F 72% 29.83 in 10.0 mi South 9.2 mph - N/A   Mostly Cloudy
1:53 PM 64.0 °F 51.1 °F 63% 29.80 in 10.0 mi South 11.5 mph - N/A   Mostly Cloudy
2:53 PM 63.0 °F 50.0 °F 63% 29.80 in 10.0 mi South 9.2 mph - N/A   Mostly Cloudy
3:39 PM 62.6 °F 51.8 °F 68% 29.84 in 10.0 mi South 9.2 mph - N/A   Scattered Clouds
3:53 PM 61.0 °F 52.0 °F 72% 29.81 in 10.0 mi SSW 5.8 mph - N/A   Mostly Cloudy
4:02 PM 60.8 °F 51.8 °F 72% 29.84 in 10.0 mi South 8.1 mph - N/A   Mostly Cloudy
4:53 PM 61.0 °F 52.0 °F 72% 29.83 in 10.0 mi SSE 5.8 mph - N/A   Overcast
5:04 PM 60.8 °F 51.8 °F 72% 29.85 in 10.0 mi SSE 8.1 mph - N/A   Overcast
5:53 PM 60.1 °F 51.1 °F 72% 29.84 in 10.0 mi South 4.6 mph - N/A   Overcast
6:53 PM 59.0 °F 51.1 °F 75% 29.85 in 10.0 mi South 3.5 mph - N/A   Overcast
7:53 PM 59.0 °F 51.1 °F 75% 29.85 in 10.0 mi Calm Calm - N/A   Mostly Cloudy
8:19 PM 59.0 °F 51.8 °F 77% 29.88 in 10.0 mi Calm Calm - N/A   Overcast
8:53 PM 59.0 °F 51.1 °F 75% 29.86 in 10.0 mi Calm Calm - N/A   Overcast
9:03 PM 59.0 °F 51.8 °F 77% 29.88 in 10.0 mi Calm Calm - N/A   Mostly Cloudy
9:53 PM 57.9 °F 50.0 °F 75% 29.86 in 10.0 mi Calm Calm - N/A   Clear
10:53 PM 55.9 °F 50.0 °F 80% 29.86 in 10.0 mi Calm Calm - N/A   Clear
11:53 PM 54.0 °F 48.9 °F 83% 29.85 in 10.0 mi Calm Calm - N/A   Clear